FENGYUN 1C DEB, 36656

Orbit data source: Space-Track

FENGYUN 1C DEB, 36656 is space debris in SSO originally from a launch on Mon, 10 May 1999 UTC launched from the Taiyaun Space Center, China (TSC). Fengyun 1C debris stems from the Chinese weather satellite Fengyun-1C, which was intentionally destroyed by a Chinese anti-satellite missile in 2007. This event dramatically increased the amount of space debris, with thousands of trackable fragments posing hazards to satellites and human spaceflight. The Fengyun 1C debris cloud has become a focal point in discussions about space sustainability and the need for international regulations to prevent the creation of new debris.

Loading next visibility...
Identifier
36656, 1999-025DYA
Orbit
SSO
Country
Flag of CNCN / PRC
Related business
Manufacturer
Unknown
Mission
Spacecraft
Bus & Motor
Unknown
Mass
Unknown
Launch date (UTC)
Icon of a cake. It is the launch day of the satellite!1999-05-10 (27 years ago)
Launch vehicle
Unknown
Launch site
Taiyaun Space Center, China (TSC)
Object type
Payload
Rocket body
Debris
Shape & HBR
Unknown shape, 0.1 m
Radar Cross Section
Small (<0.1 m²)

Expand to show TLE details & history
Last TLE update: 2 months ago

TLE from 2 months ago
0 FENGYUN 1C DEB
1 36656U 99025DYA 26084.55214542  .00001132  00000-0  11882-2 0  9998
2 36656  97.4286 195.3381 0333063 246.7863 109.7884 13.54781806602376
Epoch: 2026-03-25T13:15Z
TLE epoch observation values (Epoch: 2026-03-25T13:15:05.364Z)
Latitude
Longitude
173.55194°
Altitude
1,148.582 km
Speed
7.234 km/s
True Right ascension
13h 01m 21s
True Declination
0° 00' 00"
Sunlit
Object was in full shadow at epoch
Visualization orbit readout
Latitude
Unknown
Longitude
Unknown
Altitude
Unknown
Speed
Unknown
Apparent Right ascension
Unknown
Apparent Declination
Unknown
Sunlit
N/A
Visualization observer readout
Local Sidereal Time
21:26:14
Azimuth
Unknown
Elevation
Unknown
Doppler factor
Unknown
Orbital elements
Apogee altitude
1,299.371 km
Perigee altitude
804.436 km
Semi-major axis
7,430.041 km
Eccentricity
0.03331
Inclination
97.4286°
RAAN
195.3381°
Arg. of periapsis
246.7863°
True anomaly
113.32746°
Mean anomaly
109.7884°
Eccentric anomaly
111.56315°
Mean motion
3.38888 °/min
Orbital period
106.23 mins
BSTAR
0.0011882
Loading maneuver chart data...
Computing Atmospheric mass density...

Documentation

Showing up to 5 results
|